This is the latest recevied weather packets stored in our database for station/object SQ7RAF-15. If no packets are shown the sender has not sent any weather packets the latest 1 day(s).
| Time | Temp. | Humidity | Pressure | Rain* | Wind** | Luminosity | Snow |
|---|---|---|---|---|---|---|---|
| 1777998346 | 25.56° C | 32% | 1004.8 hPa | 0 mm | 0.45 m/s, 318° | 38 W/m² | - |
| 1777998041 | 25.56° C | 31% | 1004.8 hPa | 0 mm | 0.45 m/s, 271° | 39 W/m² | - |
| 1777997753 | 25.56° C | 31% | 1004.9 hPa | 0 mm | 0.45 m/s, 303° | 41 W/m² | - |
| 1777997434 | 26.11° C | 31% | 1004.9 hPa | 0 mm | 0.45 m/s, 304° | 42 W/m² | - |
| 1777997132 | 26.11° C | 30% | 1004.8 hPa | 0 mm | 0.89 m/s, 333° | 55 W/m² | - |
| 1777996840 | 26.11° C | 28% | 1004.9 hPa | 0 mm | 0.89 m/s, 259° | 52 W/m² | - |
| 1777996521 | 26.11° C | 27% | 1004.9 hPa | 0 mm | 0.89 m/s, 237° | 56 W/m² | - |
| 1777996218 | 26.11° C | 27% | 1005 hPa | 0 mm | 0.89 m/s, 257° | 68 W/m² | - |
| 1777995961 | 26.11° C | 26% | 1004.9 hPa | 0 mm | 0.45 m/s, 304° | 57 W/m² | - |
| 1777995656 | 26.11° C | 25% | 1004.8 hPa | 0 mm | 0.45 m/s, 304° | 65 W/m² | - |
| 1777995321 | 26.11° C | 24% | 1005 hPa | 0 mm | 1.34 m/s, 207° | 69 W/m² | - |
| 1777995034 | 26.11° C | 25% | 1004.9 hPa | 0 mm | 1.34 m/s, 189° | 78 W/m² | - |
| 1777994745 | 26.67° C | 25% | 1005 hPa | 0 mm | 0.89 m/s, 5° | 68 W/m² | - |
| 1777994443 | 26.67° C | 24% | 1005 hPa | 0 mm | 1.34 m/s, 292° | 71 W/m² | - |
| 1777994120 | 26.67° C | 24% | 1005 hPa | 0 mm | 1.34 m/s, 149° | 58 W/m² | - |
| 1777993833 | 27.22° C | 25% | 1004.9 hPa | 0 mm | 0.89 m/s, 126° | 98 W/m² | - |
| 1777993544 | 27.22° C | 24% | 1004.9 hPa | 0 mm | 0.89 m/s, 167° | 87 W/m² | - |
| 1777993225 | 27.22° C | 24% | 1005 hPa | 0 mm | 1.79 m/s, 176° | 93 W/m² | - |
| 1777992936 | 27.22° C | 25% | 1005.1 hPa | 0 mm | 1.34 m/s, 194° | 117 W/m² | - |
| 1777992617 | 27.22° C | 25% | 1005 hPa | 0 mm | 1.34 m/s, 128° | 83 W/m² | - |
| 1777992329 | 27.22° C | 25% | 1005.1 hPa | 0 mm | 1.79 m/s, 196° | 137 W/m² | - |
| 1777992040 | 27.22° C | 26% | 1005.1 hPa | 0 mm | 1.34 m/s, 255° | 142 W/m² | - |
| 1777991721 | 27.22° C | 26% | 1005.2 hPa | 0 mm | 0.89 m/s, 241° | 151 W/m² | - |
| 1777991433 | 27.78° C | 26% | 1005.2 hPa | 0 mm | 1.79 m/s, 174° | 189 W/m² | - |
| 1777991144 | 27.78° C | 26% | 1005.2 hPa | 0 mm | 0.89 m/s, 216° | 163 W/m² | - |
* Rain latest hour (hover to see other rain measurements)
** Current wind speed in m/s (hover to see current wind gust speed)